Time,TemperatureF,DewpointF,PressureIn,WindDirection,WindDirectionDegrees,WindSpeedMPH,WindSpeedGustMPH,Humidity,HourlyPrecipIn,Conditions,Clouds,dailyrainin,SoftwareType,DateUTC
2013-07-21 00:03:00,73.0,71.5,30.02,SSW,207,0.0,2.0,95,0.09,,,0.00,WUHU216DAVISVP2,2013-07-21 04:03:00,
2013-07-21 00:08:00,73.1,71.9,30.02,SSW,206,0.0,2.0,96,0.02,,,0.00,WUHU216DAVISVP2,2013-07-21 04:08:00,
2013-07-21 00:13:00,73.2,71.7,30.02,SSW,206,2.0,2.0,95,0.00,,,0.00,WUHU216DAVISVP2,2013-07-21 04:13:00,
2013-07-21 00:18:00,73.2,71.7,30.02,SSW,207,0.0,2.0,95,0.00,,,0.00,WUHU216DAVISVP2,2013-07-21 04:18:00,
2013-07-21 00:23:00,73.1,71.9,30.02,SSW,206,0.0,2.0,96,0.00,,,0.00,WUHU216DAVISVP2,2013-07-21 04:23:00,
2013-07-21 00:28:00,73.1,71.9,30.02,SSW,207,0.0,2.0,96,0.00,,,0.00,WUHU216DAVISVP2,2013-07-21 04:28:00,
2013-07-21 00:33:00,73.0,71.8,30.02,SSW,206,0.0,1.0,96,0.00,,,0.00,WUHU216DAVISVP2,2013-07-21 04:33:00,
2013-07-21 00:38:00,73.0,71.8,30.03,SSW,207,0.0,0.0,96,0.00,,,0.00,WUHU216DAVISVP2,2013-07-21 04:38:00,
2013-07-21 00:44:00,72.9,71.7,30.02,SSW,207,0.0,0.0,96,0.00,,,0.00,WUHU216DAVISVP2,2013-07-21 04:44:00,
2013-07-21 00:49:00,72.9,71.7,30.03,SSW,206,0.0,0.0,96,0.00,,,0.00,WUHU216DAVISVP2,2013-07-21 04:49:00,
2013-07-21 00:54:00,72.8,71.6,30.02,SSW,207,0.0,0.0,96,0.00,,,0.00,WUHU216DAVISVP2,2013-07-21 04:54:00,
2013-07-21 00:59:00,72.8,71.6,30.02,SSW,207,0.0,0.0,96,0.00,,,0.00,WUHU216DAVISVP2,2013-07-21 04:59:00,
2013-07-21 01:04:00,72.8,71.6,30.02,SSW,207,0.0,0.0,96,0.00,,,0.00,WUHU216DAVISVP2,2013-07-21 05:04:00,
2013-07-21 01:09:00,72.9,71.7,30.02,SSW,206,0.0,0.0,96,0.00,,,0.00,WUHU216DAVISVP2,2013-07-21 05:09:00,
2013-07-21 01:14:00,73.0,71.8,30.02,SSW,206,0.0,0.0,96,0.00,,,0.00,WUHU216DAVISVP2,2013-07-21 05:14:00,
2013-07-21 01:19:00,73.2,72.3,30.01,SSW,206,0.0,0.0,97,0.00,,,0.00,WUHU216DAVISVP2,2013-07-21 05:19:00,
2013-07-21 01:24:00,73.2,72.0,30.02,SSW,206,0.0,1.0,96,0.00,,,0.00,WUHU216DAVISVP2,2013-07-21 05:24:00,
2013-07-21 01:29:00,73.2,72.0,30.02,SSW,207,0.0,1.0,96,0.00,,,0.00,WUHU216DAVISVP2,2013-07-21 05:29:00,
2013-07-21 01:34:00,73.2,72.0,30.01,SSW,207,0.0,1.0,96,0.00,,,0.00,WUHU216DAVISVP2,2013-07-21 05:34:00,
2013-07-21 01:39:00,73.1,71.9,30.01,SSW,206,0.0,1.0,96,0.00,,,0.00,WUHU216DAVISVP2,2013-07-21 05:39:00,
2013-07-21 01:44:00,73.0,71.8,30.01,SSW,207,0.0,1.0,96,0.00,,,0.00,WUHU216DAVISVP2,2013-07-21 05:44:00,
2013-07-21 01:49:00,73.0,71.8,30.01,SSW,207,0.0,1.0,96,0.00,,,0.00,WUHU216DAVISVP2,2013-07-21 05:49:00,
2013-07-21 01:54:00,73.0,71.8,30.01,SSW,207,0.0,1.0,96,0.00,,,0.00,WUHU216DAVISVP2,2013-07-21 05:54:00,
2013-07-21 01:59:00,72.9,71.7,30.01,SSW,207,0.0,1.0,96,0.00,,,0.00,WUHU216DAVISVP2,2013-07-21 05:59:00,
2013-07-21 02:05:00,72.8,71.6,30.00,SSW,207,0.0,1.0,96,0.00,,,0.00,WUHU216DAVISVP2,2013-07-21 06:05:00,
2013-07-21 02:10:00,72.8,71.6,30.00,SSW,206,0.0,1.0,96,0.00,,,0.00,WUHU216DAVISVP2,2013-07-21 06:10:00,
2013-07-21 02:15:00,72.8,71.6,30.01,SSW,206,0.0,1.0,96,0.00,,,0.00,WUHU216DAVISVP2,2013-07-21 06:15:00,
2013-07-21 02:20:00,72.6,71.4,30.00,SSW,207,0.0,1.0,96,0.00,,,0.00,WUHU216DAVISVP2,2013-07-21 06:20:00,
2013-07-21 02:25:00,72.5,71.3,30.00,SSW,206,0.0,1.0,96,0.00,,,0.00,WUHU216DAVISVP2,2013-07-21 06:25:00,
2013-07-21 02:30:00,72.4,71.2,30.00,SSW,207,0.0,0.0,96,0.00,,,0.00,WUHU216DAVISVP2,2013-07-21 06:30:00,
2013-07-21 02:35:00,72.5,71.3,30.00,SSW,207,0.0,0.0,96,0.00,,,0.00,WUHU216DAVISVP2,2013-07-21 06:35:00,
2013-07-21 02:40:00,72.4,71.2,30.00,SSW,207,0.0,0.0,96,0.00,,,0.00,WUHU216DAVISVP2,2013-07-21 06:40:00,
2013-07-21 02:45:00,72.4,71.2,30.00,SSW,207,0.0,0.0,96,0.00,,,0.00,WUHU216DAVISVP2,2013-07-21 06:45:00,
2013-07-21 02:50:00,72.5,71.6,30.00,SSW,207,0.0,0.0,97,0.00,,,0.00,WUHU216DAVISVP2,2013-07-21 06:50:00,
2013-07-21 02:55:00,72.5,71.6,30.00,SSW,207,0.0,0.0,97,0.00,,,0.00,WUHU216DAVISVP2,2013-07-21 06:55:00,
2013-07-21 03:00:00,72.4,71.2,30.00,SSW,206,0.0,0.0,96,0.00,,,0.00,WUHU216DAVISVP2,2013-07-21 07:00:00,
2013-07-21 03:05:00,72.3,71.1,30.00,SSW,207,0.0,0.0,96,0.00,,,0.00,WUHU216DAVISVP2,2013-07-21 07:05:00,
2013-07-21 03:10:00,72.2,71.0,30.00,SSW,207,0.0,0.0,96,0.00,,,0.00,WUHU216DAVISVP2,2013-07-21 07:10:00,
2013-07-21 03:15:00,72.3,71.1,30.00,SSW,207,0.0,0.0,96,0.00,,,0.00,WUHU216DAVISVP2,2013-07-21 07:15:00,
2013-07-21 03:20:00,72.3,71.1,30.00,SSW,206,0.0,0.0,96,0.00,,,0.00,WUHU216DAVISVP2,2013-07-21 07:20:00,
2013-07-21 03:26:00,72.3,71.4,30.00,SSW,207,0.0,1.0,97,0.00,,,0.00,WUHU216DAVISVP2,2013-07-21 07:26:00,
2013-07-21 03:31:00,72.4,71.5,30.00,SSW,206,0.0,1.0,97,0.00,,,0.00,WUHU216DAVISVP2,2013-07-21 07:31:00,
2013-07-21 03:36:00,72.4,71.5,30.00,SSW,207,0.0,1.0,97,0.00,,,0.00,WUHU216DAVISVP2,2013-07-21 07:36:00,
2013-07-21 03:41:00,72.4,71.5,30.00,SSW,206,0.0,1.0,97,0.00,,,0.00,WUHU216DAVISVP2,2013-07-21 07:41:00,
2013-07-21 03:46:00,72.4,71.5,30.00,SSW,206,0.0,1.0,97,0.00,,,0.00,WUHU216DAVISVP2,2013-07-21 07:46:00,
2013-07-21 03:51:00,72.4,71.5,30.00,SSW,207,0.0,2.0,97,0.00,,,0.00,WUHU216DAVISVP2,2013-07-21 07:51:00,
2013-07-21 03:56:00,72.4,71.5,30.00,SSW,207,0.0,2.0,97,0.00,,,0.00,WUHU216DAVISVP2,2013-07-21 07:56:00,
2013-07-21 04:01:00,72.4,71.5,29.99,SSW,206,0.0,2.0,97,0.00,,,0.00,WUHU216DAVISVP2,2013-07-21 08:01:00,
2013-07-21 04:06:00,72.4,71.5,29.99,SSW,207,0.0,2.0,97,0.00,,,0.00,WUHU216DAVISVP2,2013-07-21 08:06:00,
2013-07-21 04:11:00,72.3,71.4,29.99,SSW,206,0.0,1.0,97,0.00,,,0.00,WUHU216DAVISVP2,2013-07-21 08:11:00,
2013-07-21 04:16:00,72.3,71.4,29.99,SSW,206,0.0,2.0,97,0.00,,,0.00,WUHU216DAVISVP2,2013-07-21 08:16:00,
2013-07-21 04:21:00,72.3,71.4,29.99,SSW,206,0.0,2.0,97,0.00,,,0.00,WUHU216DAVISVP2,2013-07-21 08:21:00,
2013-07-21 04:26:00,72.3,71.4,29.99,SSW,206,0.0,2.0,97,0.00,,,0.00,WUHU216DAVISVP2,2013-07-21 08:26:00,
2013-07-21 04:31:00,72.3,71.4,29.99,SSW,206,0.0,2.0,97,0.00,,,0.00,WUHU216DAVISVP2,2013-07-21 08:31:00,
2013-07-21 04:36:00,72.3,71.4,29.99,SSW,207,0.0,2.0,97,0.00,,,0.00,WUHU216DAVISVP2,2013-07-21 08:36:00,
2013-07-21 04:41:00,72.2,71.3,29.99,SSW,206,1.0,2.0,97,0.00,,,0.00,WUHU216DAVISVP2,2013-07-21 08:41:00,
2013-07-21 04:47:00,72.3,71.4,29.98,SSW,207,0.0,3.0,97,0.00,,,0.00,WUHU216DAVISVP2,2013-07-21 08:47:00,
2013-07-21 04:52:00,72.3,71.4,29.98,SSW,206,0.0,3.0,97,0.00,,,0.00,WUHU216DAVISVP2,2013-07-21 08:52:00,
2013-07-21 04:57:00,72.3,71.4,29.99,SSE,168,4.0,4.0,97,0.00,,,0.00,WUHU216DAVISVP2,2013-07-21 08:57:00,
2013-07-21 05:02:00,72.4,71.5,29.99,SSE,168,0.0,4.0,97,0.01,,,0.01,WUHU216DAVISVP2,2013-07-21 09:02:00,
2013-07-21 05:07:00,72.4,71.5,29.99,SSW,211,0.0,4.0,97,0.01,,,0.01,WUHU216DAVISVP2,2013-07-21 09:07:00,
2013-07-21 05:12:00,72.4,71.5,30.00,SSW,211,0.0,4.0,97,0.01,,,0.01,WUHU216DAVISVP2,2013-07-21 09:12:00,
2013-07-21 05:17:00,72.4,71.5,30.00,SSW,211,0.0,4.0,97,0.01,,,0.01,WUHU216DAVISVP2,2013-07-21 09:17:00,
2013-07-21 05:22:00,72.4,71.5,30.00,SSW,211,0.0,4.0,97,0.01,,,0.01,WUHU216DAVISVP2,2013-07-21 09:22:00,
2013-07-21 05:27:00,72.4,71.5,30.00,SSW,211,0.0,2.0,97,0.01,,,0.01,WUHU216DAVISVP2,2013-07-21 09:27:00,
2013-07-21 05:32:00,72.4,71.5,30.00,SSW,211,0.0,2.0,97,0.01,,,0.01,WUHU216DAVISVP2,2013-07-21 09:32:00,
2013-07-21 05:37:00,72.4,71.5,30.00,SSW,211,0.0,1.0,97,0.01,,,0.01,WUHU216DAVISVP2,2013-07-21 09:37:00,
2013-07-21 05:42:00,72.4,71.5,30.00,SSW,211,0.0,1.0,97,0.01,,,0.01,WUHU216DAVISVP2,2013-07-21 09:42:00,
2013-07-21 05:47:00,72.4,71.5,30.00,SSW,211,0.0,1.0,97,0.01,,,0.01,WUHU216DAVISVP2,2013-07-21 09:47:00,
2013-07-21 05:52:00,72.4,71.5,30.00,SSW,211,0.0,1.0,97,0.01,,,0.01,WUHU216DAVISVP2,2013-07-21 09:52:00,
2013-07-21 05:57:00,72.4,71.5,30.00,SSW,211,0.0,1.0,97,0.00,,,0.01,WUHU216DAVISVP2,2013-07-21 09:57:00,
2013-07-21 06:03:00,72.4,71.5,30.00,SSW,211,0.0,1.0,97,0.00,,,0.01,WUHU216DAVISVP2,2013-07-21 10:03:00,
2013-07-21 06:08:00,72.4,71.5,30.00,SSW,211,0.0,3.0,97,0.00,,,0.01,WUHU216DAVISVP2,2013-07-21 10:08:00,
2013-07-21 06:13:00,72.5,71.6,30.01,SSW,213,0.0,4.0,97,0.00,,,0.01,WUHU216DAVISVP2,2013-07-21 10:13:00,
2013-07-21 06:18:00,72.5,71.6,30.01,SSW,213,0.0,4.0,97,0.00,,,0.01,WUHU216DAVISVP2,2013-07-21 10:18:00,
2013-07-21 06:23:00,72.5,71.6,30.01,SSW,213,1.0,4.0,97,0.00,,,0.01,WUHU216DAVISVP2,2013-07-21 10:23:00,
2013-07-21 06:28:00,72.5,71.6,30.01,SSW,213,0.0,4.0,97,0.00,,,0.01,WUHU216DAVISVP2,2013-07-21 10:28:00,
2013-07-21 06:33:00,72.6,71.7,30.01,SSW,213,0.0,1.0,97,0.00,,,0.01,WUHU216DAVISVP2,2013-07-21 10:33:00,
2013-07-21 06:38:00,72.6,71.7,30.01,SSW,213,0.0,1.0,97,0.00,,,0.01,WUHU216DAVISVP2,2013-07-21 10:38:00,
2013-07-21 06:43:00,72.6,71.7,30.01,SSW,213,0.0,2.0,97,0.00,,,0.01,WUHU216DAVISVP2,2013-07-21 10:43:00,
2013-07-21 06:48:00,72.6,71.7,30.02,SSW,213,0.0,2.0,97,0.00,,,0.01,WUHU216DAVISVP2,2013-07-21 10:48:00,
2013-07-21 06:53:00,72.6,71.7,30.02,SSW,213,0.0,2.0,97,0.00,,,0.01,WUHU216DAVISVP2,2013-07-21 10:53:00,
2013-07-21 06:58:00,72.6,71.7,30.02,SSW,213,0.0,2.0,97,0.00,,,0.01,WUHU216DAVISVP2,2013-07-21 10:58:00,
2013-07-21 07:04:00,72.6,71.7,30.02,SSW,213,0.0,2.0,97,0.00,,,0.01,WUHU216DAVISVP2,2013-07-21 11:04:00,
2013-07-21 07:09:00,72.6,71.7,30.02,SSW,213,0.0,0.0,97,0.00,,,0.01,WUHU216DAVISVP2,2013-07-21 11:09:00,
2013-07-21 07:14:00,72.7,71.8,30.02,SSW,213,0.0,0.0,97,0.00,,,0.01,WUHU216DAVISVP2,2013-07-21 11:14:00,
2013-07-21 07:19:00,72.7,71.8,30.02,SSW,213,0.0,0.0,97,0.00,,,0.01,WUHU216DAVISVP2,2013-07-21 11:19:00,
2013-07-21 07:24:00,72.7,71.8,30.02,SSW,213,0.0,0.0,97,0.00,,,0.01,WUHU216DAVISVP2,2013-07-21 11:24:00,
2013-07-21 07:29:00,72.8,71.9,30.03,SSW,213,0.0,0.0,97,0.00,,,0.01,WUHU216DAVISVP2,2013-07-21 11:29:00,
2013-07-21 07:34:00,72.9,72.0,30.03,SSW,213,0.0,0.0,97,0.00,,,0.01,WUHU216DAVISVP2,2013-07-21 11:34:00,
2013-07-21 07:39:00,72.9,72.0,30.03,SSW,213,0.0,0.0,97,0.00,,,0.01,WUHU216DAVISVP2,2013-07-21 11:39:00,
2013-07-21 07:44:00,73.0,72.1,30.03,SSW,213,0.0,0.0,97,0.00,,,0.01,WUHU216DAVISVP2,2013-07-21 11:44:00,
2013-07-21 07:49:00,73.0,72.1,30.04,SSW,213,0.0,0.0,97,0.00,,,0.01,WUHU216DAVISVP2,2013-07-21 11:49:00,
2013-07-21 07:54:00,73.1,72.2,30.04,SSW,213,0.0,0.0,97,0.00,,,0.01,WUHU216DAVISVP2,2013-07-21 11:54:00,
2013-07-21 07:59:00,73.1,72.2,30.04,SSW,213,0.0,0.0,97,0.00,,,0.01,WUHU216DAVISVP2,2013-07-21 11:59:00,
2013-07-21 08:04:00,73.3,72.4,30.04,SSW,213,1.0,2.0,97,0.00,,,0.01,WUHU216DAVISVP2,2013-07-21 12:04:00,
2013-07-21 08:09:00,73.5,72.6,30.04,SSW,213,0.0,3.0,97,0.00,,,0.01,WUHU216DAVISVP2,2013-07-21 12:09:00,
2013-07-21 08:14:00,73.5,72.6,30.04,SSW,213,0.0,3.0,97,0.00,,,0.01,WUHU216DAVISVP2,2013-07-21 12:14:00,
2013-07-21 08:19:00,73.5,72.6,30.04,SSW,213,1.0,3.0,97,0.00,,,0.01,WUHU216DAVISVP2,2013-07-21 12:19:00,
2013-07-21 08:25:00,73.4,72.5,30.04,SSW,213,1.0,3.0,97,0.00,,,0.01,WUHU216DAVISVP2,2013-07-21 12:25:00,
2013-07-21 08:30:00,73.4,72.5,30.04,SSW,213,0.0,3.0,97,0.00,,,0.01,WUHU216DAVISVP2,2013-07-21 12:30:00,
2013-07-21 08:35:00,73.5,72.6,30.05,SSW,213,0.0,1.0,97,0.00,,,0.01,WUHU216DAVISVP2,2013-07-21 12:35:00,
2013-07-21 08:40:00,73.6,72.7,30.05,SSW,213,0.0,1.0,97,0.00,,,0.01,WUHU216DAVISVP2,2013-07-21 12:40:00,
2013-07-21 08:45:00,73.5,72.6,30.05,SSW,213,0.0,1.0,97,0.00,,,0.01,WUHU216DAVISVP2,2013-07-21 12:45:00,
2013-07-21 08:50:00,73.7,72.8,30.05,SSW,213,0.0,3.0,97,0.00,,,0.01,WUHU216DAVISVP2,2013-07-21 12:50:00,
2013-07-21 08:55:00,74.0,73.1,30.05,SSW,213,0.0,3.0,97,0.00,,,0.01,WUHU216DAVISVP2,2013-07-21 12:55:00,
2013-07-21 09:00:00,74.3,73.4,30.05,SW,234,2.0,5.0,97,0.00,,,0.01,WUHU216DAVISVP2,2013-07-21 13:00:00,
2013-07-21 09:05:00,74.4,73.5,30.05,SSW,210,1.0,5.0,97,0.00,,,0.01,WUHU216DAVISVP2,2013-07-21 13:05:00,
2013-07-21 09:10:00,74.5,73.6,30.05,SSW,193,1.0,5.0,97,0.00,,,0.01,WUHU216DAVISVP2,2013-07-21 13:10:00,
2013-07-21 09:15:00,74.6,73.7,30.05,SW,227,3.0,6.0,97,0.00,,,0.01,WUHU216DAVISVP2,2013-07-21 13:15:00,
2013-07-21 09:20:00,74.7,73.5,30.05,SW,227,2.0,6.0,96,0.00,,,0.01,WUHU216DAVISVP2,2013-07-21 13:20:00,
2013-07-21 09:25:00,74.9,73.7,30.05,SW,215,2.0,6.0,96,0.00,,,0.01,WUHU216DAVISVP2,2013-07-21 13:25:00,
2013-07-21 09:30:00,75.3,74.4,30.05,SW,225,4.0,6.0,97,0.00,,,0.01,WUHU216DAVISVP2,2013-07-21 13:30:00,
2013-07-21 09:35:00,75.3,73.7,30.05,SW,218,3.0,5.0,95,0.00,,,0.01,WUHU216DAVISVP2,2013-07-21 13:35:00,
2013-07-21 09:41:00,75.5,73.9,30.05,SW,223,1.0,6.0,95,0.00,,,0.01,WUHU216DAVISVP2,2013-07-21 13:41:00,
2013-07-21 09:46:00,75.7,74.2,30.05,SW,227,0.0,7.0,95,0.00,,,0.01,WUHU216DAVISVP2,2013-07-21 13:46:00,
2013-07-21 09:51:00,75.8,74.3,30.05,SW,227,0.0,7.0,95,0.00,,,0.01,WUHU216DAVISVP2,2013-07-21 13:51:00,
2013-07-21 09:56:00,76.2,74.9,30.05,SSW,202,4.0,7.0,96,0.00,,,0.01,WUHU216DAVISVP2,2013-07-21 13:56:00,
2013-07-21 10:01:00,76.2,74.6,30.05,SSW,204,3.0,7.0,95,0.00,,,0.01,WUHU216DAVISVP2,2013-07-21 14:01:00,
2013-07-21 10:06:00,76.2,74.3,30.05,SSW,204,0.0,5.0,94,0.00,,,0.01,WUHU216DAVISVP2,2013-07-21 14:06:00,
2013-07-21 10:11:00,76.3,74.4,30.05,SSW,204,1.0,5.0,94,0.00,,,0.01,WUHU216DAVISVP2,2013-07-21 14:11:00,
2013-07-21 10:16:00,76.6,74.7,30.05,SSW,207,2.0,5.0,94,0.00,,,0.01,WUHU216DAVISVP2,2013-07-21 14:16:00,
2013-07-21 10:21:00,77.3,75.4,30.05,South,188,2.0,5.0,94,0.00,,,0.01,WUHU216DAVISVP2,2013-07-21 14:21:00,
2013-07-21 10:26:00,78.0,76.1,30.05,SSW,197,1.0,5.0,94,0.00,,,0.01,WUHU216DAVISVP2,2013-07-21 14:26:00,
2013-07-21 10:31:00,78.1,75.9,30.05,SSW,196,0.0,5.0,93,0.00,,,0.01,WUHU216DAVISVP2,2013-07-21 14:31:00,
2013-07-21 10:36:00,78.3,76.1,30.05,SSW,198,3.0,5.0,93,0.00,,,0.01,WUHU216DAVISVP2,2013-07-21 14:36:00,
2013-07-21 10:41:00,78.7,75.8,30.04,SSW,196,1.0,4.0,91,0.00,,,0.01,WUHU216DAVISVP2,2013-07-21 14:41:00,
2013-07-21 10:46:00,79.2,75.7,30.04,SSW,196,0.0,4.0,89,0.00,,,0.01,WUHU216DAVISVP2,2013-07-21 14:46:00,
2013-07-21 10:51:00,80.2,77.0,30.05,South,171,0.0,5.0,90,0.00,,,0.01,WUHU216DAVISVP2,2013-07-21 14:51:00,
2013-07-21 10:57:00,80.2,76.3,30.05,South,171,1.0,5.0,88,0.00,,,0.01,WUHU216DAVISVP2,2013-07-21 14:57:00,
2013-07-21 11:02:00,80.0,75.8,30.05,SSW,211,0.0,4.0,87,0.00,,,0.01,WUHU216DAVISVP2,2013-07-21 15:02:00,
2013-07-21 11:07:00,79.9,76.0,30.05,SSW,211,0.0,4.0,88,0.00,,,0.01,WUHU216DAVISVP2,2013-07-21 15:07:00,
2013-07-21 11:12:00,79.8,75.9,30.05,SSW,211,0.0,3.0,88,0.00,,,0.01,WUHU216DAVISVP2,2013-07-21 15:12:00,
2013-07-21 11:17:00,79.9,75.7,30.05,SSW,211,0.0,3.0,87,0.00,,,0.01,WUHU216DAVISVP2,2013-07-21 15:17:00,
2013-07-21 11:22:00,80.7,76.2,30.05,South,169,0.0,3.0,86,0.00,,,0.01,WUHU216DAVISVP2,2013-07-21 15:22:00,
2013-07-21 11:27:00,81.4,75.8,30.04,ESE,110,1.0,4.0,83,0.00,,,0.01,WUHU216DAVISVP2,2013-07-21 15:27:00,
2013-07-21 11:32:00,82.0,76.4,30.04,ESE,104,1.0,6.0,83,0.00,,,0.01,WUHU216DAVISVP2,2013-07-21 15:32:00,
2013-07-21 11:37:00,82.7,77.1,30.04,SW,223,2.0,6.0,83,0.00,,,0.01,WUHU216DAVISVP2,2013-07-21 15:37:00,
2013-07-21 11:42:00,83.3,77.3,30.03,SW,223,0.0,6.0,82,0.00,,,0.01,WUHU216DAVISVP2,2013-07-21 15:42:00,
2013-07-21 11:47:00,83.3,76.6,30.03,SW,233,3.0,6.0,80,0.00,,,0.01,WUHU216DAVISVP2,2013-07-21 15:47:00,
2013-07-21 11:52:00,83.0,76.3,30.04,WSW,241,2.0,6.0,80,0.00,,,0.01,WUHU216DAVISVP2,2013-07-21 15:52:00,
2013-07-21 11:57:00,83.0,77.0,30.03,ESE,105,0.0,6.0,82,0.00,,,0.01,WUHU216DAVISVP2,2013-07-21 15:57:00,
2013-07-21 12:02:00,83.8,78.8,30.03,East,99,0.0,6.0,85,0.00,,,0.01,WUHU216DAVISVP2,2013-07-21 16:02:00,
2013-07-21 12:08:00,84.5,77.4,30.03,East,92,1.0,5.0,79,0.00,,,0.01,WUHU216DAVISVP2,2013-07-21 16:08:00,
2013-07-21 12:13:00,84.7,78.7,30.03,ENE,69,1.0,5.0,82,0.00,,,0.01,WUHU216DAVISVP2,2013-07-21 16:13:00,
2013-07-21 12:18:00,84.6,79.0,30.03,East,88,0.0,5.0,83,0.00,,,0.01,WUHU216DAVISVP2,2013-07-21 16:18:00,
2013-07-21 12:23:00,83.9,77.8,30.03,East,88,0.0,5.0,82,0.00,,,0.01,WUHU216DAVISVP2,2013-07-21 16:23:00,
2013-07-21 12:28:00,82.7,76.4,30.03,NW,323,0.0,5.0,81,0.00,,,0.01,WUHU216DAVISVP2,2013-07-21 16:28:00,
2013-07-21 12:33:00,80.9,75.3,30.03,NW,323,0.0,3.0,83,0.03,,,0.04,WUHU216DAVISVP2,2013-07-21 16:33:00,
2013-07-21 12:38:00,79.3,75.1,30.03,North,5,0.0,3.0,87,0.14,,,0.15,WUHU216DAVISVP2,2013-07-21 16:38:00,
2013-07-21 12:43:00,78.0,74.5,30.04,SSE,163,1.0,3.0,89,0.17,,,0.18,WUHU216DAVISVP2,2013-07-21 16:43:00,
2013-07-21 12:48:00,76.9,73.4,30.03,SSW,209,3.0,11.0,89,0.28,,,0.29,WUHU216DAVISVP2,2013-07-21 16:48:00,
2013-07-21 12:53:00,75.8,72.3,30.03,South,188,0.0,11.0,89,0.32,,,0.33,WUHU216DAVISVP2,2013-07-21 16:53:00,
2013-07-21 12:59:00,75.2,72.4,30.04,South,180,1.0,10.0,91,0.37,,,0.38,WUHU216DAVISVP2,2013-07-21 16:59:00,
2013-07-21 13:04:00,74.7,71.9,30.04,South,171,0.0,10.0,91,0.38,,,0.39,WUHU216DAVISVP2,2013-07-21 17:04:00,
2013-07-21 13:09:00,74.2,71.7,30.04,South,171,0.0,5.0,92,0.39,,,0.40,WUHU216DAVISVP2,2013-07-21 17:09:00,
2013-07-21 13:14:00,74.0,71.8,30.03,SW,234,0.0,3.0,93,0.40,,,0.41,WUHU216DAVISVP2,2013-07-21 17:14:00,
2013-07-21 13:19:00,73.6,71.4,30.03,ESE,110,0.0,3.0,93,0.41,,,0.42,WUHU216DAVISVP2,2013-07-21 17:19:00,
2013-07-21 13:24:00,73.2,71.0,30.03,ESE,118,1.0,3.0,93,0.42,,,0.43,WUHU216DAVISVP2,2013-07-21 17:24:00,
2013-07-21 13:29:00,73.0,70.8,30.03,East,95,2.0,7.0,93,0.42,,,0.43,WUHU216DAVISVP2,2013-07-21 17:29:00,
2013-07-21 13:34:00,72.6,70.4,30.03,South,174,6.0,7.0,93,0.37,,,0.43,WUHU216DAVISVP2,2013-07-21 17:34:00,
2013-07-21 13:39:00,72.4,70.5,30.03,SSW,207,0.0,7.0,94,0.27,,,0.43,WUHU216DAVISVP2,2013-07-21 17:39:00,
2013-07-21 13:44:00,72.3,70.4,30.02,ESE,111,1.0,7.0,94,0.22,,,0.43,WUHU216DAVISVP2,2013-07-21 17:44:00,
2013-07-21 13:49:00,72.3,70.8,30.02,ESE,102,0.0,7.0,95,0.13,,,0.43,WUHU216DAVISVP2,2013-07-21 17:49:00,
2013-07-21 13:54:00,72.2,70.3,30.02,ESE,102,0.0,3.0,94,0.09,,,0.43,WUHU216DAVISVP2,2013-07-21 17:54:00,
2013-07-21 13:59:00,72.2,70.7,30.02,ESE,103,0.0,3.0,95,0.04,,,0.43,WUHU216DAVISVP2,2013-07-21 17:59:00,
2013-07-21 14:04:00,72.2,70.7,30.02,ESE,102,1.0,3.0,95,0.04,,,0.43,WUHU216DAVISVP2,2013-07-21 18:04:00,
2013-07-21 14:09:00,72.2,70.7,30.02,ESE,103,1.0,2.0,95,0.03,,,0.43,WUHU216DAVISVP2,2013-07-21 18:09:00,
2013-07-21 14:14:00,72.3,70.8,30.02,NNE,28,0.0,4.0,95,0.02,,,0.43,WUHU216DAVISVP2,2013-07-21 18:14:00,
2013-07-21 14:20:00,72.4,71.2,30.02,NNE,28,0.0,4.0,96,0.02,,,0.44,WUHU216DAVISVP2,2013-07-21 18:20:00,
2013-07-21 14:25:00,72.7,71.5,30.02,NNE,28,0.0,4.0,96,0.01,,,0.44,WUHU216DAVISVP2,2013-07-21 18:25:00,
2013-07-21 14:30:00,72.9,71.7,30.02,NNE,28,0.0,4.0,96,0.01,,,0.44,WUHU216DAVISVP2,2013-07-21 18:30:00,
2013-07-21 14:35:00,73.1,71.9,30.02,NNE,28,0.0,1.0,96,0.01,,,0.44,WUHU216DAVISVP2,2013-07-21 18:35:00,
2013-07-21 14:40:00,73.3,72.1,30.01,NNE,28,0.0,1.0,96,0.01,,,0.44,WUHU216DAVISVP2,2013-07-21 18:40:00,
2013-07-21 14:45:00,73.9,73.0,30.01,NNE,28,0.0,2.0,97,0.01,,,0.44,WUHU216DAVISVP2,2013-07-21 18:45:00,
2013-07-21 14:50:00,74.6,73.7,30.02,NNE,28,0.0,2.0,97,0.01,,,0.44,WUHU216DAVISVP2,2013-07-21 18:50:00,
2013-07-21 14:55:00,75.1,74.2,30.02,ESE,122,0.0,3.0,97,0.01,,,0.44,WUHU216DAVISVP2,2013-07-21 18:55:00,
2013-07-21 15:00:00,75.5,74.3,30.02,East,88,0.0,3.0,96,0.01,,,0.44,WUHU216DAVISVP2,2013-07-21 19:00:00,
2013-07-21 15:05:00,75.7,74.1,30.02,ENE,78,0.0,4.0,95,0.01,,,0.44,WUHU216DAVISVP2,2013-07-21 19:05:00,
2013-07-21 15:10:00,75.5,73.6,30.03,East,82,1.0,4.0,94,0.01,,,0.44,WUHU216DAVISVP2,2013-07-21 19:10:00,
2013-07-21 15:15:00,75.5,73.7,30.03,East,82,0.0,4.0,94,0.01,,,0.44,WUHU216DAVISVP2,2013-07-21 19:15:00,
2013-07-21 15:20:00,75.5,73.6,30.02,East,82,0.0,4.0,94,0.00,,,0.44,WUHU216DAVISVP2,2013-07-21 19:20:00,
2013-07-21 15:25:00,75.4,73.5,30.02,East,82,0.0,2.0,94,0.00,,,0.44,WUHU216DAVISVP2,2013-07-21 19:25:00,
2013-07-21 15:30:00,75.3,73.8,30.02,East,82,0.0,2.0,95,0.00,,,0.44,WUHU216DAVISVP2,2013-07-21 19:30:00,
2013-07-21 15:36:00,75.3,73.5,30.02,ENE,64,4.0,4.0,94,0.00,,,0.44,WUHU216DAVISVP2,2013-07-21 19:36:00,
2013-07-21 15:41:00,75.4,73.5,30.01,NE,50,4.0,5.0,94,0.00,,,0.44,WUHU216DAVISVP2,2013-07-21 19:41:00,
2013-07-21 15:46:00,75.6,73.7,30.01,ENE,69,0.0,5.0,94,0.00,,,0.44,WUHU216DAVISVP2,2013-07-21 19:46:00,
2013-07-21 15:51:00,75.6,73.7,30.01,ENE,69,0.0,4.0,94,0.00,,,0.44,WUHU216DAVISVP2,2013-07-21 19:51:00,
2013-07-21 15:56:00,75.6,73.8,30.01,ENE,69,1.0,4.0,94,0.00,,,0.44,WUHU216DAVISVP2,2013-07-21 19:56:00,
2013-07-21 16:01:00,75.5,73.6,30.02,ENE,65,1.0,4.0,94,0.00,,,0.44,WUHU216DAVISVP2,2013-07-21 20:01:00,
2013-07-21 16:06:00,75.4,73.5,30.02,ENE,59,0.0,4.0,94,0.00,,,0.44,WUHU216DAVISVP2,2013-07-21 20:06:00,
2013-07-21 16:11:00,75.3,73.5,30.02,ENE,59,0.0,4.0,94,0.00,,,0.44,WUHU216DAVISVP2,2013-07-21 20:11:00,
2013-07-21 16:16:00,75.1,73.2,30.01,ENE,59,0.0,4.0,94,0.00,,,0.44,WUHU216DAVISVP2,2013-07-21 20:16:00,
2013-07-21 16:21:00,74.7,72.5,30.01,ENE,59,0.0,4.0,93,0.00,,,0.44,WUHU216DAVISVP2,2013-07-21 20:21:00,
2013-07-21 16:26:00,74.6,72.7,30.01,ENE,59,0.0,2.0,94,0.00,,,0.44,WUHU216DAVISVP2,2013-07-21 20:26:00,
2013-07-21 16:31:00,74.4,72.5,29.99,ENE,59,0.0,1.0,94,0.00,,,0.44,WUHU216DAVISVP2,2013-07-21 20:31:00,
2013-07-21 16:36:00,74.3,72.4,29.99,ENE,59,0.0,1.0,94,0.00,,,0.44,WUHU216DAVISVP2,2013-07-21 20:36:00,
2013-07-21 16:41:00,74.2,72.3,29.99,ENE,59,0.0,1.0,94,0.00,,,0.44,WUHU216DAVISVP2,2013-07-21 20:41:00,
2013-07-21 16:46:00,74.1,72.5,29.99,ENE,59,1.0,2.0,95,0.00,,,0.44,WUHU216DAVISVP2,2013-07-21 20:46:00,
2013-07-21 16:52:00,74.1,72.5,29.98,ENE,59,0.0,2.0,95,0.00,,,0.44,WUHU216DAVISVP2,2013-07-21 20:52:00,
2013-07-21 16:57:00,74.0,72.4,29.98,ENE,59,0.0,2.0,95,0.00,,,0.44,WUHU216DAVISVP2,2013-07-21 20:57:00,
2013-07-21 17:02:00,74.2,73.0,29.99,ENE,59,0.0,2.0,96,0.00,,,0.44,WUHU216DAVISVP2,2013-07-21 21:02:00,
2013-07-21 17:07:00,74.3,73.1,29.99,ENE,59,0.0,1.0,96,0.00,,,0.44,WUHU216DAVISVP2,2013-07-21 21:07:00,
2013-07-21 17:12:00,74.4,73.2,29.98,ENE,59,0.0,1.0,96,0.00,,,0.44,WUHU216DAVISVP2,2013-07-21 21:12:00,
2013-07-21 17:17:00,74.5,72.9,29.97,ENE,59,0.0,1.0,95,0.00,,,0.44,WUHU216DAVISVP2,2013-07-21 21:17:00,
2013-07-21 17:22:00,74.7,73.2,29.97,ENE,59,0.0,1.0,95,0.00,,,0.44,WUHU216DAVISVP2,2013-07-21 21:22:00,
2013-07-21 17:27:00,75.1,73.9,29.97,ENE,66,0.0,2.0,96,0.00,,,0.44,WUHU216DAVISVP2,2013-07-21 21:27:00,
2013-07-21 17:32:00,75.1,73.2,29.97,SW,226,0.0,5.0,94,0.00,,,0.44,WUHU216DAVISVP2,2013-07-21 21:32:00,
2013-07-21 17:37:00,75.3,73.1,29.97,SW,227,0.0,5.0,93,0.00,,,0.44,WUHU216DAVISVP2,2013-07-21 21:37:00,
2013-07-21 17:42:00,75.6,73.7,29.97,SW,226,1.0,5.0,94,0.00,,,0.44,WUHU216DAVISVP2,2013-07-21 21:42:00,
2013-07-21 17:47:00,75.7,73.8,29.97,SW,226,0.0,5.0,94,0.00,,,0.44,WUHU216DAVISVP2,2013-07-21 21:47:00,
2013-07-21 17:52:00,75.8,73.3,29.97,SW,219,1.0,3.0,92,0.00,,,0.44,WUHU216DAVISVP2,2013-07-21 21:52:00,
2013-07-21 17:57:00,75.9,73.4,29.97,SW,219,0.0,3.0,92,0.00,,,0.44,WUHU216DAVISVP2,2013-07-21 21:57:00,
2013-07-21 18:03:00,75.9,73.4,29.97,SW,219,0.0,3.0,92,0.00,,,0.44,WUHU216DAVISVP2,2013-07-21 22:03:00,
2013-07-21 18:08:00,76.1,73.6,29.98,SW,219,0.0,3.0,92,0.00,,,0.44,WUHU216DAVISVP2,2013-07-21 22:08:00,
2013-07-21 18:13:00,76.1,73.3,29.97,SW,219,0.0,3.0,91,0.00,,,0.44,WUHU216DAVISVP2,2013-07-21 22:13:00,
2013-07-21 18:18:00,76.1,72.9,29.97,SW,220,0.0,3.0,90,0.00,,,0.44,WUHU216DAVISVP2,2013-07-21 22:18:00,
2013-07-21 18:23:00,76.3,73.5,29.97,SW,220,1.0,3.0,91,0.00,,,0.44,WUHU216DAVISVP2,2013-07-21 22:23:00,
2013-07-21 18:28:00,76.3,73.8,29.97,SW,220,0.0,2.0,92,0.00,,,0.44,WUHU216DAVISVP2,2013-07-21 22:28:00,
2013-07-21 18:33:00,76.0,72.8,29.97,SW,220,1.0,2.0,90,0.00,,,0.44,WUHU216DAVISVP2,2013-07-21 22:33:00,
2013-07-21 18:38:00,75.8,73.0,29.97,SW,220,0.0,2.0,91,0.00,,,0.44,WUHU216DAVISVP2,2013-07-21 22:38:00,
2013-07-21 18:43:00,75.7,72.9,29.96,SW,220,0.0,1.0,91,0.00,,,0.44,WUHU216DAVISVP2,2013-07-21 22:43:00,
2013-07-21 18:48:00,75.6,73.1,29.96,SW,220,0.0,1.0,92,0.00,,,0.44,WUHU216DAVISVP2,2013-07-21 22:48:00,
2013-07-21 18:53:00,75.5,72.7,29.96,SW,220,0.0,1.0,91,0.00,,,0.44,WUHU216DAVISVP2,2013-07-21 22:53:00,
2013-07-21 18:58:00,75.7,73.5,29.96,SW,220,0.0,0.0,93,0.00,,,0.44,WUHU216DAVISVP2,2013-07-21 22:58:00,
2013-07-21 19:03:00,75.7,73.5,29.96,SW,220,0.0,0.0,93,0.00,,,0.44,WUHU216DAVISVP2,2013-07-21 23:03:00,
2013-07-21 19:08:00,75.6,73.4,29.96,SW,220,0.0,0.0,93,0.00,,,0.44,WUHU216DAVISVP2,2013-07-21 23:08:00,
2013-07-21 19:13:00,75.6,73.4,29.96,SW,220,0.0,0.0,93,0.00,,,0.44,WUHU216DAVISVP2,2013-07-21 23:13:00,
2013-07-21 19:18:00,75.4,72.9,29.96,SW,220,0.0,0.0,92,0.00,,,0.44,WUHU216DAVISVP2,2013-07-21 23:18:00,
2013-07-21 19:24:00,75.4,73.2,29.96,SW,220,0.0,0.0,93,0.00,,,0.44,WUHU216DAVISVP2,2013-07-21 23:24:00,
2013-07-21 19:29:00,75.5,73.3,29.96,SW,220,0.0,0.0,93,0.00,,,0.44,WUHU216DAVISVP2,2013-07-21 23:29:00,
2013-07-21 19:34:00,75.6,73.4,29.96,SW,220,0.0,0.0,93,0.00,,,0.44,WUHU216DAVISVP2,2013-07-21 23:34:00,
2013-07-21 19:39:00,75.7,73.8,29.97,SW,220,0.0,0.0,94,0.00,,,0.44,WUHU216DAVISVP2,2013-07-21 23:39:00,
2013-07-21 19:44:00,75.7,73.8,29.97,SW,220,0.0,0.0,94,0.00,,,0.44,WUHU216DAVISVP2,2013-07-21 23:44:00,
2013-07-21 19:49:00,75.8,73.9,29.97,SW,220,0.0,0.0,94,0.00,,,0.44,WUHU216DAVISVP2,2013-07-21 23:49:00,
2013-07-21 19:54:00,75.7,73.8,29.97,SW,220,0.0,0.0,94,0.00,,,0.44,WUHU216DAVISVP2,2013-07-21 23:54:00,
2013-07-21 19:59:00,75.7,73.8,29.97,SW,220,0.0,0.0,94,0.00,,,0.44,WUHU216DAVISVP2,2013-07-21 23:59:00,
2013-07-21 20:04:00,75.7,73.8,29.97,SW,220,0.0,0.0,94,0.00,,,0.44,WUHU216DAVISVP2,2013-07-22 00:04:00,
2013-07-21 20:09:00,75.5,73.6,29.97,SW,220,0.0,0.0,94,0.00,,,0.44,WUHU216DAVISVP2,2013-07-22 00:09:00,
2013-07-21 20:14:00,75.5,73.7,29.98,SW,220,0.0,0.0,94,0.00,,,0.44,WUHU216DAVISVP2,2013-07-22 00:14:00,
2013-07-21 20:19:00,75.4,73.6,29.98,SW,220,0.0,0.0,94,0.00,,,0.44,WUHU216DAVISVP2,2013-07-22 00:19:00,
2013-07-21 20:24:00,75.3,73.4,29.98,SW,220,0.0,0.0,94,0.00,,,0.44,WUHU216DAVISVP2,2013-07-22 00:24:00,
2013-07-21 20:29:00,75.2,73.3,29.98,SW,220,0.0,0.0,94,0.00,,,0.44,WUHU216DAVISVP2,2013-07-22 00:29:00,
2013-07-21 20:34:00,75.1,73.5,29.99,SW,220,0.0,0.0,95,0.00,,,0.44,WUHU216DAVISVP2,2013-07-22 00:34:00,
2013-07-21 20:39:00,74.9,73.3,29.99,SW,220,0.0,0.0,95,0.00,,,0.44,WUHU216DAVISVP2,2013-07-22 00:39:00,
2013-07-21 20:45:00,74.9,73.3,29.99,SW,220,0.0,0.0,95,0.00,,,0.44,WUHU216DAVISVP2,2013-07-22 00:45:00,
2013-07-21 20:50:00,74.8,73.3,30.00,SW,220,0.0,0.0,95,0.00,,,0.44,WUHU216DAVISVP2,2013-07-22 00:50:00,
2013-07-21 20:55:00,74.8,73.3,30.00,SW,220,0.0,0.0,95,0.00,,,0.44,WUHU216DAVISVP2,2013-07-22 00:55:00,
2013-07-21 21:00:00,74.7,73.1,30.00,SW,220,0.0,0.0,95,0.00,,,0.44,WUHU216DAVISVP2,2013-07-22 01:00:00,
2013-07-21 21:05:00,74.6,73.0,30.00,SW,220,0.0,0.0,95,0.00,,,0.44,WUHU216DAVISVP2,2013-07-22 01:05:00,
2013-07-21 21:10:00,74.7,73.2,30.00,SW,220,0.0,0.0,95,0.00,,,0.44,WUHU216DAVISVP2,2013-07-22 01:10:00,
2013-07-21 21:15:00,74.6,73.0,30.00,SW,220,0.0,0.0,95,0.00,,,0.44,WUHU216DAVISVP2,2013-07-22 01:15:00,
2013-07-21 21:20:00,74.6,73.4,30.00,SW,220,0.0,0.0,96,0.00,,,0.44,WUHU216DAVISVP2,2013-07-22 01:20:00,
2013-07-21 21:25:00,74.5,73.3,29.99,SW,220,0.0,0.0,96,0.00,,,0.44,WUHU216DAVISVP2,2013-07-22 01:25:00,
2013-07-21 21:30:00,74.5,73.3,30.00,SW,220,0.0,0.0,96,0.00,,,0.44,WUHU216DAVISVP2,2013-07-22 01:30:00,
2013-07-21 21:35:00,74.5,73.3,29.99,SW,220,0.0,0.0,96,0.00,,,0.44,WUHU216DAVISVP2,2013-07-22 01:35:00,
2013-07-21 21:40:00,74.5,73.3,29.99,SW,220,0.0,0.0,96,0.00,,,0.44,WUHU216DAVISVP2,2013-07-22 01:40:00,
2013-07-21 21:45:00,74.4,73.2,29.99,SW,220,0.0,0.0,96,0.00,,,0.44,WUHU216DAVISVP2,2013-07-22 01:45:00,
2013-07-21 21:50:00,74.3,73.1,30.00,SW,220,0.0,0.0,96,0.00,,,0.44,WUHU216DAVISVP2,2013-07-22 01:50:00,
2013-07-21 21:55:00,74.3,73.1,30.00,SW,220,0.0,0.0,96,0.00,,,0.44,WUHU216DAVISVP2,2013-07-22 01:55:00,
2013-07-21 22:00:00,74.2,73.0,30.00,SW,220,0.0,0.0,96,0.00,,,0.44,WUHU216DAVISVP2,2013-07-22 02:00:00,
2013-07-21 22:06:00,74.1,72.9,30.00,SW,220,0.0,0.0,96,0.00,,,0.44,WUHU216DAVISVP2,2013-07-22 02:06:00,
2013-07-21 22:11:00,74.1,72.9,30.01,SW,220,0.0,0.0,96,0.00,,,0.44,WUHU216DAVISVP2,2013-07-22 02:11:00,
2013-07-21 22:16:00,74.0,72.8,30.00,SW,220,0.0,0.0,96,0.00,,,0.44,WUHU216DAVISVP2,2013-07-22 02:16:00,
2013-07-21 22:21:00,74.0,72.8,30.00,SW,220,0.0,0.0,96,0.00,,,0.44,WUHU216DAVISVP2,2013-07-22 02:21:00,
2013-07-21 22:26:00,73.9,72.7,30.01,SW,220,0.0,0.0,96,0.00,,,0.44,WUHU216DAVISVP2,2013-07-22 02:26:00,
2013-07-21 22:31:00,73.9,72.7,30.01,SW,220,0.0,0.0,96,0.00,,,0.44,WUHU216DAVISVP2,2013-07-22 02:31:00,
2013-07-21 22:36:00,73.8,72.6,30.01,SW,220,0.0,0.0,96,0.00,,,0.44,WUHU216DAVISVP2,2013-07-22 02:36:00,
2013-07-21 22:41:00,73.7,72.5,30.01,SW,220,0.0,0.0,96,0.00,,,0.44,WUHU216DAVISVP2,2013-07-22 02:41:00,
2013-07-21 22:46:00,73.7,72.5,30.01,SW,220,0.0,0.0,96,0.00,,,0.44,WUHU216DAVISVP2,2013-07-22 02:46:00,
2013-07-21 22:51:00,73.6,72.4,30.01,SW,220,0.0,0.0,96,0.00,,,0.44,WUHU216DAVISVP2,2013-07-22 02:51:00,
2013-07-21 22:56:00,73.5,72.3,30.02,SW,220,0.0,0.0,96,0.00,,,0.44,WUHU216DAVISVP2,2013-07-22 02:56:00,
2013-07-21 23:01:00,73.4,72.2,30.02,SW,220,0.0,0.0,96,0.00,,,0.44,WUHU216DAVISVP2,2013-07-22 03:01:00,
2013-07-21 23:06:00,73.3,72.1,30.02,SW,220,0.0,0.0,96,0.00,,,0.44,WUHU216DAVISVP2,2013-07-22 03:06:00,
2013-07-21 23:11:00,73.3,72.1,30.02,SW,220,0.0,0.0,96,0.00,,,0.44,WUHU216DAVISVP2,2013-07-22 03:11:00,
2013-07-21 23:16:00,73.3,72.1,30.02,SW,220,0.0,0.0,96,0.00,,,0.44,WUHU216DAVISVP2,2013-07-22 03:16:00,
2013-07-21 23:21:00,73.2,72.0,30.02,SW,220,0.0,0.0,96,0.00,,,0.44,WUHU216DAVISVP2,2013-07-22 03:21:00,
2013-07-21 23:27:00,73.3,72.1,30.02,SW,220,0.0,0.0,96,0.00,,,0.44,WUHU216DAVISVP2,2013-07-22 03:27:00,
2013-07-21 23:32:00,73.2,72.0,30.03,SW,220,0.0,0.0,96,0.00,,,0.44,WUHU216DAVISVP2,2013-07-22 03:32:00,
2013-07-21 23:37:00,73.2,72.0,30.02,SW,220,0.0,0.0,96,0.00,,,0.44,WUHU216DAVISVP2,2013-07-22 03:37:00,
2013-07-21 23:42:00,73.1,71.9,30.03,SW,220,0.0,0.0,96,0.00,,,0.44,WUHU216DAVISVP2,2013-07-22 03:42:00,
2013-07-21 23:47:00,73.1,71.9,30.03,SW,220,0.0,0.0,96,0.00,,,0.44,WUHU216DAVISVP2,2013-07-22 03:47:00,
2013-07-21 23:52:00,73.0,71.8,30.03,SW,220,0.0,0.0,96,0.00,,,0.44,WUHU216DAVISVP2,2013-07-22 03:52:00,
2013-07-21 23:57:00,72.9,71.7,30.03,SW,220,0.0,0.0,96,0.00,,,0.44,WUHU216DAVISVP2,2013-07-22 03:57:00,